Location: Cheyres
(46.8153°N, 6.7877°E)
Time: 09:27:16
(UTC+00:00)

QB50P2 - Pass Details

Date: 03 July 2022
Orbit: 590 x 605 km, 97.9° (Epoch: 14 August)

Event Time Altitude Azimuth Distance (km) Brightness Sun altitude
Rises 00:25:47 0° 21° (NNE) 2,862 ? -19.3°
Reaches altitude 10° 00:28:07 10° 30° (NNE) 1,957 ? -19.3°
Maximum altitude 00:32:02 36° 97° (E) 971 ? -19.1°
Enters shadow 00:33:32 27° 139° (SE) 1,168 ? -19.1°
